www.pogodaiklimat.ru

Погода и климат >> Архив погоды >> Антарктида >> Rothera


ПОГОДА в Rothera

  • Прогноз погоды в Rothera
  • Монитор погоды в Rothera
  • Климат города

АРХИВ ПОГОДЫ в Rothera

Время (UTC), дата Ветер
(напр.,м/с)
 
Видим.   Явления Облачность Т
(С)
Тd
(С)
f
(%)
Тe
(С)
Тes
(С)
Комфортность P
(гПа)
Po
(гПа)
Тmin
(С)
Tmax
(С)
R
(мм)
R24
(мм)
S
(см)
22 14.02 З 5 н/о н/о +1.8 -0.1 87 -4 -4 969.7 965.6
23 14.02 З 3 н/о н/о +1.6 -0.3 87 -2 -2 970.4 966.3
00 15.02 ЮЗ 3 >70 км 9/3 180 м
[St Ac trans]
+1.5 -0.3 88 -3 -3 971.0 966.9 +0.5 +2.5
02 15.02 ЮЗ 2 н/о н/о +1.6 -0.3 87 -2 -2 972.8 968.7
01 15.02 З 4 н/о н/о +1.6 -0.2 88 -4 -4 972.0 967.9
03 15.02 ЮВ 1 н/о н/о +1.5 -0.3 88 -0 -0 973.7 969.6
04 15.02 Ю 1 н/о н/о +1.4 -0.2 89 +1 +1 974.6 970.5
05 15.02 ЮВ 1 н/о н/о +1.5 -0.3 88 -0 -0 975.5 971.4
06 15.02 В 2 н/о н/о +1.5 -0.4 87 -1 -1 976.5 972.4
08 15.02 З 3 н/о н/о +1.1 -0.3 90 -3 -3 978.5 974.4
07 15.02 З 4 н/о н/о +0.9 -0.5 90 -4 -4 977.5 973.4
09 15.02 ЮЗ 3 н/о н/о +1.1 -0.2 91 -4 -4 979.6 975.5
10 15.02 З 4 н/о н/о +1.3 -0.3 89 -4 -4 980.5 976.4
11 15.02 СВ 1 н/о н/о +1.4 -0.4 88 -1 -1 981.2 977.1
12 15.02 З 2 40 км 9/1 450 м
[St Ac As]
+2.0 -0.3 85 -1 0 981.9 977.8 +0.8 +2.5
14 15.02 З 3 н/о н/о +2.4 -0.6 81 -1 -1 983.1 979.0
13 15.02 СЗ 7 н/о н/о +3.3 -1.3 72 -3 -3 982.2 978.1
15 15.02 С 12 50 км 8/1 900 м
[Sc Ac As]
+3.8 -1.2 70 -3 -3 983.3 979.2
16 15.02 СЗ 10 н/о н/о +3.5 -1.8 68 -3 -3 984.0 979.9
17 15.02 СЗ 14 н/о н/о +3.8 -2.1 65 -4 -4 983.9 979.8
18 15.02 С 8 60 км 5/1 600 м
[Sc Ac As]
+3.9 -1.5 68 -2 -1 985.3 981.2
20 15.02 С 9 н/о н/о +4.4 -0.8 69 -2 -2 985.6 981.5
19 15.02 С 9 н/о н/о +4.4 -1.0 68 -2 -2 985.7 981.6
21 15.02 С 10 65 км 4/3 900 м
[Sc Ac trans]
+3.2 -0.7 76 -4 -4 985.5 981.4
22 15.02 С 11 н/о н/о +3.0 -0.9 76 -4 -4 984.8 980.7
23 15.02 С 10 н/о н/о +2.8 -1.0 76 -4 -4 984.6 980.5
00 16.02 С 11 50 км 10/4 900 м
[Sc Ac As]
+2.8 -1.4 74 -4 -4 983.8 979.7 +2.0 +4.6
02 16.02 С 11 н/о н/о +1.6 -0.8 84 -6 -6 982.7 978.6
01 16.02 С 12 н/о н/о +2.4 -1.3 77 -5 -5 983.3 979.2
03 16.02 С 14 н/о н/о +1.6 -0.6 85 -7 -7 981.8 977.7
04 16.02 СЗ 13 н/о н/о +1.1 -0.5 89 -8 -8 981.2 977.1
05 16.02 С 11 н/о н/о +1.1 -0.1 92 -7 -7 980.7 976.6
06 16.02 СЗ 11 н/о н/о +1.7 +0.1 89 -6 -6 979.9 975.8
08 16.02 С 10 н/о н/о +2.2 +0.5 89 -5 -5 978.2 974.1
07 16.02 С 10 н/о н/о +1.5 +0.2 91 -6 -6 979.0 974.9
09 16.02 С 13 н/о н/о +1.4 +0.1 91 -7 -7 977.7 973.6
10 16.02 С 12 н/о н/о +1.9 +0.2 88 -6 -6 977.8 973.7
11 16.02 СЗ 10 н/о н/о +1.4 0.0 90 -7 -7 978.7 974.6
12 16.02 С 11 15 км {снег} 10/10 600 м
[Sc]
+1.2 -0.1 91 -7 -7 979.4 975.3 +0.9 +2.8
14 16.02 С 7 н/о н/о +2.6 0.0 83 -4 -4 979.7 975.6
15 16.02 СЗ 8 50 км 8/6 900 м
[Sc Ac lent Cs]
+3.7 +0.4 79 -3 -2 979.8 975.7
16 16.02 С 6 н/о н/о +4.2 +0.8 79 -1 -1 980.6 976.5
17 16.02 СЗ 8 н/о н/о +4.8 +0.5 74 -1 -1 980.5 976.4
18 16.02 СВ 6 15 км 8/3 360 м
[Sc As op Ci fib]
+4.7 +0.9 76 -0 +1 981.0 976.9
19 16.02 С 9 н/о н/о +5.0 +0.7 74 -1 -1 981.0 976.9
20 16.02 С 5 н/о н/о +4.6 +0.7 76 -0 -0 981.4 977.3
21 16.02 СВ 7 15 км 9/9 900 м
[Sc As op]
+3.8 +0.4 78 -2 -2 981.6 977.5
22 16.02 С 3 н/о н/о +3.5 +0.3 80 -0 -0 981.9 977.8
23 16.02 С 4 н/о н/о +3.6 +0.5 80 -1 -1 982.4 978.3
00 17.02 СВ 4 50 км 10/10 800 м
[Sc As op]
+3.7 +0.4 79 -1 -1 982.8 978.7 +1.2 +5.5
01 17.02 С 2 н/о н/о +3.4 +0.1 79 +1 +1 982.9 978.8
02 17.02 В 2 н/о н/о +2.6 -0.2 82 -1 -1 983.3 979.2
03 17.02 СВ 1 н/о н/о +2.6 -0.1 82 +1 +1 983.6 979.5
04 17.02 СЗ 1 н/о н/о +3.2 -0.1 79 +3 +3 984.1 980.0
05 17.02 З 3 н/о н/о +2.7 -0.2 81 -1 -1 984.6 980.5
06 17.02 З 4 н/о н/о +2.1 -0.2 85 -3 -3 985.1 981.0
07 17.02 З 1 н/о н/о +1.4 -0.4 88 -1 -1 986.0 981.9
08 17.02 ЮВ 1 н/о н/о +1.9 -0.5 84 0 0 987.0 982.9
09 17.02 ЮВ 1 н/о н/о +1.6 -0.7 85 -0 -0 987.8 983.7
10 17.02 ЮЗ 2 н/о н/о +2.1 -0.4 84 -1 -1 988.6 984.5
11 17.02 ЮЗ 4 н/о н/о +2.1 -0.5 83 -3 -3 989.4 985.3
12 17.02 ЮЗ 3 55 км 9/4 1200 м
[Sc Ac As]
+2.3 -0.5 82 -1 -1 990.2 986.1 +1.3 +3.7
13 17.02 ЮЗ 2 н/о н/о +2.7 -0.2 81 0 0 990.8 986.7
14 17.02 ЮВ 1 н/о н/о +3.1 -0.3 78 +2 +2 991.1 987.0
15 17.02 В 1 45 км 6/1 900 м
[Sc Ac trans Ci fib]
+3.1 -0.1 79 +3 +8 991.7 987.6
16 17.02 В 1 н/о н/о +2.6 0.0 83 +1 +1 992.2 988.1
17 17.02 Ю 5 н/о н/о +3.0 +0.1 81 -2 -2 992.6 988.5
18 17.02 ЮЗ 2 40 км 1/1 1200 м
[Sc Ci sp]
+4.9 +0.7 74 +3 +9 993.3 989.2
19 17.02 ЮЗ 3 н/о н/о +4.4 +0.3 75 +1 +1 993.8 989.7
20 17.02 З 4 н/о н/о +4.5 +0.6 76 0 0 993.9 989.8
21 17.02 СЗ 2 40 км 1/0
[Ac lent Ci sp]
+4.7 -0.2 71 +3 +5 994.3 990.2
22 17.02 В 1 н/о н/о +1.8 -0.2 87 0 0 994.8 990.7
23 17.02 СВ 1 н/о н/о +1.8 -0.2 87 0 0 995.4 991.3
00 18.02 В 1 50 км 3/0
[Ci sp]
+1.3 -0.6 87 -1 -1 995.7 991.6 +1.3 +4.9
01 18.02 ЮВ 1 н/о н/о +0.3 -0.6 94 -2 -2 996.1 992.0
02 18.02 Ю 4 н/о н/о -0.2 -0.8 96 -6 -6 996.2 992.1
03 18.02 З 1 н/о н/о -1.0 -1.6 96 -2 -2 996.3 992.1
04 18.02 СВ 1 н/о н/о -1.1 -1.6 96 -3 -3 996.8 992.6
05 18.02 С 2 н/о н/о -1.9 -2.3 97 -6 -6 996.7 992.5
06 18.02 СЗ 1 н/о н/о -1.9 -2.3 97 -3 -3 996.8 992.6
07 18.02 ЮВ 1 н/о н/о -2.1 -2.5 97 -5 -5 996.9 992.7
08 18.02 СЗ 1 н/о н/о -2.3 -2.7 97 -3 -3 996.8 992.6
09 18.02 ЮЗ 1 н/о н/о -2.5 -2.9 97 -5 -5 996.8 992.6
10 18.02 СЗ 2 н/о н/о -3.1 -3.6 96 -7 -7 996.9 992.7
11 18.02 СВ 1 н/о н/о -3.0 -3.5 96 -4 -4 996.9 992.7
12 18.02 Ю 1 300 м туман н/о -3.0 -3.5 96 -6 -6 997.2 993.0 -3.3 +1.3
13 18.02 ЮЗ 2 н/о н/о -2.8 -3.3 96 -7 -7 997.2 993.0
14 18.02 С 2 н/о н/о -2.4 -2.9 96 -7 -7 996.8 992.6
15 18.02 С 2 600 м туман н/о -2.3 -2.8 96 -6 -6 996.6 992.4
16 18.02 ЮЗ 3 н/о н/о -2.3 -2.8 96 -7 -7 996.6 992.4
17 18.02 З 2 н/о н/о -1.8 -2.4 96 -5 -5 996.5 992.3
18 18.02 З 3 800 м туман н/о -1.8 -2.5 95 -7 -7 996.5 992.3
19 18.02 З 3 н/о н/о -1.6 -2.4 94 -6 -6 996.5 992.3
20 18.02 СЗ 1 н/о н/о -1.9 -2.7 94 -4 -4 996.6 992.4
21 18.02 Ю 2 400 м туман н/о -1.2 -1.9 95 -5 -5 996.7 992.5
22 18.02 С 3 н/о н/о -1.9 -2.5 96 -7 -7 996.7 992.5
23 18.02 С 2 н/о н/о -2.3 -2.8 96 -7 -7 996.7 992.5
00 19.02 С 2 400 м туман н/о -2.7 -3.3 96 -7 -7 996.9 992.7 -3.0 -1.1
01 19.02 С 3 н/о н/о -3.2 -3.6 97 -8 -8 997.0 992.8
02 19.02 С 3 н/о н/о -3.1 -3.6 96 -9 -9 997.1 992.9
03 19.02 С 3 н/о н/о -3.6 -4.0 97 -9 -9 997.1 992.9
04 19.02 С 3 н/о н/о -3.6 -4.0 97 -9 -9 997.2 993.0
05 19.02 С 2 н/о н/о -3.4 -3.8 97 -8 -8 997.3 993.1
06 19.02 С 1 н/о н/о -3.3 -3.8 96 -6 -6 997.3 993.1
08 19.02 штиль 0 н/о н/о -2.6 -3.3 95 -4 -4 997.2 993.0
09 19.02 ЮЗ 5 н/о н/о -2.7 -3.4 95 -10 -10 997.4 993.2
11 19.02 З 3 н/о н/о -1.7 -2.6 94 -7 -7 997.5 993.3
10 19.02 З 3 н/о н/о -2.1 -3.4 91 -7 -7 997.6 993.4
12 19.02 Ю 3 300 м туман н/о -1.2 -2.0 94 -6 -6 997.6 993.4 -3.6 -1.2
13 19.02 ЮЗ 3 н/о н/о -2.2 -2.7 96 -8 -8 997.6 993.4
14 19.02 ЮЗ 3 н/о н/о -1.7 -2.2 96 -7 -7 997.6 993.4
15 19.02 З 4 800 м туман н/о -1.9 -2.5 96 -8 -8 997.6 993.4
17 19.02 Ю 1 н/о н/о -1.4 -2.2 94 -4 -4 997.6 993.4
16 19.02 ЮЗ 3 н/о н/о -1.6 -2.2 96 -6 -6 997.6 993.4
18 19.02 Ю 2 900 м туман н/о -1.1 -1.8 95 -4 -4 997.6 993.4
19 19.02 З 2 н/о н/о -1.1 -1.9 94 -5 -5 997.5 993.3
20 19.02 З 3 н/о н/о -1.1 -1.9 94 -6 -6 997.4 993.2
21 19.02 З 3 600 м туман н/о -1.3 -2.1 94 -6 -6 997.2 993.0
23 19.02 З 2 н/о н/о -2.3 -2.8 96 -7 -7 996.9 992.7
22 19.02 З 3 н/о н/о -2.0 -2.6 96 -7 -7 997.0 992.8
00 20.02 З 3 300 м туман н/о -2.6 -3.1 96 -8 -8 996.8 992.6 -2.6 -0.7
01 20.02 ЮЗ 2 н/о н/о -2.9 -3.3 97 -7 -7 996.7 992.5
02 20.02 ЮЗ 2 н/о н/о -3.5 -3.9 97 -8 -8 996.3 992.1
03 20.02 ЮЗ 1 н/о н/о -3.8 -4.2 97 -6 -6 996.1 991.9
05 20.02 СВ 6 н/о н/о -1.0 -2.3 91 -8 -8 995.1 990.9
04 20.02 СЗ 2 н/о н/о -3.4 -3.9 96 -8 -8 995.5 991.3
06 20.02 С 10 н/о н/о +0.1 -1.8 87 -8 -8 994.4 990.3
07 20.02 С 12 н/о н/о +0.4 -2.2 83 -8 -8 994.0 989.9
08 20.02 С 8 н/о н/о +0.6 -2.4 80 -7 -7 993.7 989.6
09 20.02 С 10 н/о н/о +1.1 -2.4 77 -7 -7 993.4 989.3
11 20.02 С 12 н/о н/о +1.1 -1.8 81 -7 -7 992.7 988.6
10 20.02 С 10 н/о н/о +0.8 -2.0 82 -7 -7 993.2 989.1
12 20.02 С 11 30 км 6/3 540 м
[Sc Ac trans Ci]
+1.4 -1.3 82 -7 -7 992.6 988.5 -4.1 +1.4
13 20.02 С 10 н/о н/о +2.0 -1.4 78 -5 -5 992.4 988.3
14 20.02 С 10 н/о н/о +2.4 -1.5 75 -5 -5 991.9 987.8
15 20.02 С 9 50 км 8/1 540 м
[Sc Ac trans Ci sp]
+2.7 -1.4 74 -4 -4 991.9 987.8
17 20.02 С 8 н/о н/о +3.6 -1.0 72 -2 -2 991.3 987.2
16 20.02 С 11 н/о н/о +3.0 -1.1 74 -4 -4 991.4 987.3
18 20.02 С 8 60 км 3/1 600 м
[Sc Ac As Ci fib]
+3.7 -0.8 72 -2 -1 991.1 987.0
19 20.02 С 5 н/о н/о +3.9 -0.8 71 -1 -1 990.7 986.6
20 20.02 СВ 4 н/о н/о +3.9 -0.6 72 -0 -0 990.2 986.1
21 20.02 СВ 3 50 км 8/8 1230 м
[Sc Ac lent Cs]
+4.3 -0.6 70 +1 +2 989.7 985.6
23 20.02 В 2 н/о н/о +1.6 -1.2 82 -1 -1 988.7 984.6
22 20.02 С 2 н/о н/о +3.3 -1.0 73 +1 +1 989.2 985.1
00 21.02 СЗ 1 н/о н/о +2.4 -1.5 75 +2 +2 988.1 984.0 +1.4 +4.3
01 21.02 В 1 н/о н/о +1.8 -2.2 75 0 0 987.5 983.4
02 21.02 С 1 н/о н/о +2.4 -2.7 69 +1 +1 987.0 982.9
03 21.02 З 1 н/о н/о +2.2 -2.2 73 +1 +1 986.7 982.6
05 21.02 СВ 2 н/о н/о +1.4 -1.0 84 -1 -1 986.0 981.9
04 21.02 З 2 н/о н/о +1.1 -1.0 86 -2 -2 986.3 982.2
06 21.02 С 2 н/о н/о +1.5 -1.7 79 -2 -2 985.9 981.8
07 21.02 С 3 н/о н/о +1.1 -1.8 81 -3 -3 985.8 981.7
08 21.02 С 2 н/о н/о +1.6 -1.6 79 -2 -2 985.6 981.5
09 21.02 СВ 3 н/о н/о +2.1 -1.5 77 -2 -2 985.5 981.4
11 21.02 СВ 9 н/о н/о +2.4 -0.2 83 -5 -5 985.3 981.2
10 21.02 С 7 н/о н/о +2.7 -0.7 78 -4 -4 985.2 981.1
12 21.02 С 9 30 км 9/8 450 м
[Sc Ac As Cs]
+2.8 0.0 82 -4 -4 985.1 981.0 +0.8 +2.9
13 21.02 С 8 н/о н/о +2.5 -0.1 83 -4 -4 985.1 981.0
14 21.02 СВ 5 н/о н/о +2.9 +0.2 82 -2 -2 985.1 981.0
15 21.02 С 10 15 км {дождь} 10/10 900 м
[Sc As op]
+3.2 +0.5 82 -4 -4 984.4 980.3
17 21.02 С 9 н/о н/о +3.7 +0.8 81 -3 -3 984.2 980.1
18 21.02 СВ 6 30 км {дождь} 10/4 500 м
[Sc Cs]
+3.5 +0.8 82 -2 -1 983.8 979.7
19 21.02 С 6 н/о н/о +3.7 +0.9 82 -2 -2 983.2 979.1
20 21.02 С 5 н/о н/о +3.1 +0.5 83 -2 -2 982.5 978.4

 

Местоположение метеостанции Rothera (Антарктида): широта -67.56 долгота -68.13 высота над уровнем моря 16 м.

В архиве по умолчанию представлена погода в Rothera за последнюю неделю. Архивные данные за месяц целиком и за предыдущие месяцы, начиная с января 2011 года, Вы можете получить, выбрав интересующий диапазон дат из раскрывающегося списка и нажав кнопку "Ввод!".

Внимание! Время в таблицах - всемирное. Для получения местного времени необходимо прибавить поправку, которая в Rothera равна 0 ч.

Смотрите также архив погоды в соседних городах и на ближайших метеорологических станциях:

Погода в San Martin Base (Антарктида) (74 км)
Погода в Larsen Ice Shelf (Антарктида) (289 км)
Погода в Vernadsky (Антарктида) (309 км)
Погода в Palmer Station (Антарктида) (361 км)
Погода в Fossil Bluff (Антарктида) (419 км)
Погода в Butler Island (Антарктида) (598 км)
Погода в Marambio Base (Антарктида) (636 км)
Погода в Juan Carlos Island (Антарктида) (653 км)
Погода в Bernardo o`Higgins (Антарктида) (667 км)
Погода в Captain Arturo Prat Base (Антарктида) (687 км)

Пояснения к столбцам:

Ветер - указаны скорость ветра в м/с - средняя за 10 мин, порывы в срок и между сроками (в фигурных скобках) и направление, откуда дует ветер: С - северный, СВ - северо-восточный, В - восточный, ЮВ - юго-восточный, Ю - южный, ЮЗ - юго-западный, З - западный, СЗ - северо-западный.
Видимость - горизонтальная дальность видимости в метрах или километрах. При видимости от 1 до 10 км при отсутствии осадков обычно наблюдается дымка, при ухудшении видимости до 1 км и менее - туман. В сухую погоду видимость может ухудшаться дымом, пылью или мглою.
Явления - указаны атмосферные явления, наблюдавшиеся в срок или в последний час перед сроком; фигурными скобками обозначены явления, наблюдавшиеся между сроками (за 1-3 часа до срока); квадратными скобками обозначены град или гололедные отложения с указанием их диаметра в мм.
Облачность - указаны через наклонную черту общая и нижняя облачность в баллах и высота нижней границы облаков в метрах; квадратными скобками обозначены формы облаков: Ci - перистые, Cs - перисто-слоистые, Cc - перисто-кучевые, Ac - высококучевые, As - высокослоистые, Sc - слоисто-кучевые, Ns - слоисто-дождевые, Cu - кучевые, Cb - кучево-дождевые. Подробнее классификацию облаков см. в Атласе облаков (PDF).
T - Температура воздуха - температура, измеренная на высоте 2 м над землей.
Td - Температура точки росы - температура, при понижении до которой содержащийся в воздухе водяной пар достигнет насыщения.
f - Относительная влажность воздуха - влажноcть воздуха, измеренная на высоте 2 м над землей.
Te - Эффективная температура - температура, которую ощущает одетый по сезону человек в тени. Характеристика душности погоды. При расчете учитывается влияние влажности воздуха и скорости ветра на теплоощущения человека.
Tes - Эффективная температура на солнце - температура, которую ощущает человек, с поправкой на солнечный нагрев. Характеристика знойности погоды. Зависит от высоты солнца над горизонтом, облачности и скорости ветра. Ночью, в пасмурную погоду, а также при ветре 12 м/с и более поправка равна нулю.
P - Атмосферное давление - приведенное к уровню моря атмосферное давление.
Po - Атмосферное давление - измеренное на уровне метеостанции атмосферное давление.
Tmin - Минимальная температура - минимум температуры воздуха на высоте 2 м над землей.
Tmax - Максимальная температура - максимум температуры воздуха на высоте 2 м над землей.
R - Количество осадков - Количество выпавших осадков за период времени, мм. При наведении курсора мыши на число - период времени, за который выпало указанное количество осадков.
R24 - Количество осадков - Количество выпавших осадков за 24 часа, мм.
S - Снежный покров - Высота снежного покрова, см. При наведении курсора мыши на число - состояние снежного покрова и степень покрытия местности в баллах.